TimeCST,TemperatureF,Dew PointF,Humidity,Sea Level PressureIn,VisibilityMPH,Wind Direction,Wind SpeedMPH,Gust SpeedMPH,PrecipitationIn,Events,Conditions,WindDirDegrees,DateUTC
12:05 AM,68.0,68.0,100,30.18,1.0,NNE,8.1,-,N/A,,Mist,30,2013-11-23 06:05:00
12:22 AM,66.2,66.2,100,30.18,2.5,NE,12.7,18.4,N/A,,Overcast,40,2013-11-23 06:22:00
12:29 AM,66.2,66.2,100,30.18,7.0,NE,11.5,18.4,N/A,,Overcast,40,2013-11-23 06:29:00
12:35 AM,66.2,66.2,100,30.18,9.0,NE,9.2,-,N/A,,Overcast,40,2013-11-23 06:35:00
12:55 AM,66.0,66.0,100,30.17,10.0,NE,12.7,-,N/A,,Overcast,40,2013-11-23 06:55:00
1:55 AM,66.0,64.9,96,30.17,10.0,NNE,6.9,-,N/A,,Overcast,30,2013-11-23 07:55:00
2:37 AM,66.2,64.4,94,30.18,10.0,NE,5.8,-,N/A,,Overcast,40,2013-11-23 08:37:00
2:55 AM,66.0,64.0,93,30.17,10.0,NE,6.9,-,N/A,,Overcast,40,2013-11-23 08:55:00
3:55 AM,64.9,63.0,93,30.17,10.0,NE,6.9,-,N/A,,Overcast,40,2013-11-23 09:55:00
4:38 AM,64.4,62.6,94,30.17,10.0,NE,5.8,-,N/A,,Overcast,40,2013-11-23 10:38:00
4:52 AM,64.4,62.6,94,30.17,10.0,NNE,4.6,-,N/A,,Overcast,30,2013-11-23 10:52:00
4:55 AM,64.0,63.0,96,30.17,10.0,NNE,3.5,-,N/A,,Overcast,30,2013-11-23 10:55:00
5:55 AM,64.0,63.0,96,30.19,6.0,NNE,4.6,-,N/A,,Overcast,30,2013-11-23 11:55:00
6:55 AM,64.0,63.0,96,30.19,5.0,NNE,4.6,-,N/A,,Overcast,20,2013-11-23 12:55:00
7:55 AM,64.0,63.0,96,30.21,3.0,ENE,6.9,-,N/A,,Overcast,70,2013-11-23 13:55:00
8:55 AM,64.9,64.0,97,30.22,1.8,NE,8.1,-,N/A,,Overcast,50,2013-11-23 14:55:00
9:55 AM,64.9,63.0,93,30.22,2.0,NE,5.8,-,N/A,,Overcast,40,2013-11-23 15:55:00
10:55 AM,64.9,62.1,90,30.22,2.5,North,4.6,-,N/A,,Overcast,360,2013-11-23 16:55:00
11:53 AM,64.4,62.6,94,30.21,3.0,NNE,4.6,-,N/A,,Overcast,30,2013-11-23 17:53:00
11:55 AM,66.0,63.0,90,30.20,3.0,NNE,4.6,-,N/A,,Overcast,30,2013-11-23 17:55:00
12:06 PM,64.4,64.4,100,30.20,1.8,NNE,5.8,-,N/A,,Overcast,30,2013-11-23 18:06:00
12:25 PM,66.2,62.6,88,30.20,2.5,NNE,4.6,-,N/A,,Overcast,20,2013-11-23 18:25:00
12:39 PM,64.4,62.6,94,30.20,1.0,NNE,4.6,-,N/A,Rain,Light Rain,20,2013-11-23 18:39:00
12:55 PM,64.0,62.1,93,30.19,1.0,North,5.8,-,N/A,Rain,Light Rain,360,2013-11-23 18:55:00
1:55 PM,62.1,62.1,100,30.18,1.0,North,5.8,-,N/A,,Overcast,10,2013-11-23 19:55:00
2:44 PM,60.8,60.8,100,30.20,2.0,North,8.1,-,N/A,,Overcast,360,2013-11-23 20:44:00
2:55 PM,61.0,60.1,97,30.19,2.0,NNE,9.2,-,N/A,,Overcast,30,2013-11-23 20:55:00
2:59 PM,60.8,59.0,94,30.19,4.0,NNE,11.5,16.1,N/A,,Overcast,20,2013-11-23 20:59:00
3:55 PM,59.0,57.0,93,30.21,10.0,North,8.1,18.4,N/A,,Overcast,10,2013-11-23 21:55:00
4:55 PM,57.9,54.0,87,30.21,10.0,NNE,13.8,20.7,N/A,,Overcast,20,2013-11-23 22:55:00
5:40 PM,55.4,51.8,88,30.24,10.0,NNE,11.5,23.0,N/A,,Overcast,20,2013-11-23 23:40:00
5:55 PM,55.9,52.0,87,30.25,10.0,NNE,10.4,18.4,N/A,,Overcast,20,2013-11-23 23:55:00
6:40 PM,53.6,51.8,94,30.25,10.0,NNE,13.8,23.0,N/A,,Overcast,30,2013-11-24 00:40:00
6:55 PM,55.0,50.0,83,30.25,10.0,NNE,16.1,27.6,N/A,,Overcast,20,2013-11-24 00:55:00
7:55 PM,55.0,48.9,80,30.27,10.0,NNE,10.4,20.7,N/A,,Overcast,20,2013-11-24 01:55:00
8:55 PM,54.0,48.0,80,30.27,10.0,NNE,10.4,19.6,N/A,,Overcast,20,2013-11-24 02:55:00
9:55 PM,53.1,46.0,77,30.29,10.0,NNE,11.5,24.2,N/A,,Overcast,20,2013-11-24 03:55:00
10:55 PM,52.0,44.1,74,30.31,10.0,NNE,8.1,19.6,N/A,,Overcast,20,2013-11-24 04:55:00
11:02 PM,51.8,42.8,71,30.31,10.0,NNE,11.5,18.4,N/A,,Mostly Cloudy,20,2013-11-24 05:02:00
11:55 PM,51.1,39.0,63,30.31,10.0,NNE,16.1,24.2,N/A,,Mostly Cloudy,30,2013-11-24 05:55:00